Terminal Aerodrome Forecast
Issued by NWS North Platte, NE

Home | Current Version | Previous Version | Text Only | Print | Product List | Glossary On
Versions: 1 2 3 4 5 6 7 8 9 10 11 12 13 14 15
000
FTUS43 KLBF 241700
TAFLBF
TAF
KLBF 241733Z 2418/2518 18014G22KT P6SM SCT150 SCT250
     FM250200 21006KT P6SM BKN150 BKN250
     FM251500 33015KT P6SM SKC=

USA.gov is the U.S. government's official web portal to all federal, state and local government web resources and services.